Location: Bobbingworth
(51.7167°N, 0.2167°E)
Time: 00:49:56
(UTC+00:00)

Daily predictions for brighter satellites

Satellite Brightness Start Highest point End
(mag) Time Altitude Azimuth Time Altitude Azimuth Time Altitude Azimuth
Meteor 1-24 Rocket 3.8 00:02:18 20° SSW 00:06:23 76° WNW 00:12:02 10° N
USA 234 3.9 00:00:13 10° ENE 00:06:37 58° N 00:13:00 10° W
Cosmos 2227 Rocket 2.8 00:05:20 22° S 00:08:37 44° ESE 00:13:59 10° NE
Cosmos 304 Rocket 3.8 00:06:24 21° SSW 00:09:34 81° WNW 00:14:22 10° NNE
Cosmos 1892 2.5 00:09:05 31° S 00:10:35 66° E 00:14:05 10° NNE
Cosmos 332 Rocket 4.1 00:09:47 24° S 00:12:30 53° ESE 00:17:17 10° NNE
Cosmos 2181 Rocket 4.1 00:06:38 10° NNW 00:12:48 67° W 00:16:56 22° S
Cosmos 1980 4.1 00:07:53 10° NW 00:13:21 49° WSW 00:16:41 23° S
CENTAUR R/B 3.3 00:12:18 21° SSE 00:15:30 36° ESE 00:21:44 10° NE
GEOS 3 Rocket 3.9 00:14:03 10° NE 00:19:04 48° SE 00:22:03 23° S
H-2A R/B 2.0 00:17:20 10° NNE 00:21:39 88° WNW 00:24:02 25° SSW
Cosmos 1538 Rocket 4.1 00:17:37 10° NNW 00:22:50 74° ENE 00:27:12 15° SSE
Cosmos 1503 Rocket 4.2 00:19:44 19° SSW 00:23:39 74° WNW 00:28:58 10° NNE
Cosmos 1777 Rocket 4.0 00:21:13 21° SSW 00:24:52 84° WNW 00:30:12 10° NNE
SL-4 R/B 2.8 00:21:25 10° W 00:25:06 32° SSW 00:26:25 26° S
Cosmos 2151 Rocket 4.0 00:22:35 10° NNW 00:26:50 48° W 00:29:10 24° SSW
Cosmos 1174 4.4 00:23:29 10° NW 00:28:22 48° WSW 00:30:27 26° S
NOSS 8 (A) 4.3 00:25:39 10° NW 00:28:35 58° SW 00:30:08 27° SSE
Cosmos 2297 Rocket 2.2 00:24:22 18° SW 00:28:41 81° WNW 00:34:22 10° NNE
Cosmos 2074 Rocket 4.0 00:24:31 21° S 00:28:49 86° E 00:35:05 10° N
Cosmos 2219 4.0 00:27:36 19° SSE 00:30:58 38° ESE 00:36:06 10° NE
Cosmos 2084 Rocket 3.5 00:29:51 25° SSW 00:32:11 60° SE 00:36:15 10° NE
ALOS 2 4.4 00:30:59 14° SW 00:33:13 19° W 00:36:26 10° NW
Okean 2 Rocket 3.7 00:29:21 10° NNW 00:33:37 46° W 00:36:03 23° SSW
Cosmos 1455 Rocket 3.5 00:29:56 10° N 00:34:20 57° ENE 00:37:36 17° SSE
ATLAS CENTAUR R/B 4.1 00:36:57 10° NW 00:39:00 14° NNW 00:41:06 10° NNE
Aureole 1 Rocket 4.1 00:38:34 19° SSE 00:40:25 30° E 00:44:15 10° NE
Cosmos 1825 2.3 00:42:47 26° SW 00:44:27 53° WNW 00:47:49 10° N
Cosmos 1674 Rocket 4.0 00:41:51 21° SW 00:44:32 53° WNW 00:48:49 10° N
Cosmos 1378 Rocket 4.3 00:43:13 19° SW 00:46:00 44° WNW 00:50:13 10° N
Cosmos 1025 Rocket 3.0 00:50:34 23° S 00:53:12 86° E 00:57:32 10° NNE
Cosmos 2221 Rocket 4.2 00:51:16 20° SW 00:54:08 47° WNW 00:58:27 10° N
BREEZE-M DEB (TANK) 2.8 00:51:01 10° W 00:57:09 39° SSW 00:58:59 18° SSE
Resurs 1-4 Rocket 3.9 00:54:10 10° NE 00:58:13 22° E 01:02:15 10° SE
NOSS 3-2 (A) 3.8 00:56:57 20° S 01:00:15 43° ESE 01:06:03 10° NE
Cosmos 1606 3.6 00:57:35 10° N 01:00:59 40° ENE 01:04:04 12° SE
Nadezhda 3 Rocket 4.2 00:55:27 10° NNW 01:01:39 62° W 01:06:12 19° S
Cosmos 2263 Rocket 2.8 00:58:49 18° S 01:02:35 46° ESE 01:07:53 10° NE
CZ-4C R/B 2.6 00:58:20 10° WSW 01:03:05 57° NW 01:09:09 10° NE
Cosmos 1898 Rocket 4.1 01:01:19 18° S 01:04:51 46° ESE 01:09:47 10° NE
COSMOS 2455 3.8 00:59:41 10° WSW 01:05:28 46° NW 01:11:18 10° NNE
Orbus 7S? 2.7 01:03:11 10° WNW 01:05:52 78° NNE 01:09:18 10° ESE
MOZ.5/SAFIR/RUBIN 5/SL-8 4.0 01:05:48 12° SSE 01:10:04 70° ENE 01:14:41 10° N
BlueWalker 3 2.0 01:09:18 10° W 01:13:03 74° N 01:16:48 10° ENE
Helios 1A Rocket 2.7 01:12:04 20° S 01:14:33 71° WSW 01:18:22 10° NNW
Cosmos 1461 4.2 01:14:31 16° SSE 01:16:37 25° ESE 01:19:49 10° ENE
Cosmos 2366 rocket 4.5 01:11:40 13° SSE 01:17:08 56° E 01:23:13 10° NNE
BREEZE-M DEB (TANK) 2.9 01:22:01 10° W 01:25:57 10° SE 01:26:01 10° SE
Cosmos 1680 Rocket 3.5 01:28:01 10° NNW 01:33:15 88° WSW 01:38:28 10° SSE
SL-19 R/B 3.8 01:30:20 10° N 01:33:25 62° WNW 01:35:06 22° SW
Cosmos 1818 3.6 01:28:47 10° NW 01:34:15 70° SW 01:39:40 10° SSE
In-Cosmos 22 Rocket 4.3 01:29:58 17° SSW 01:34:35 85° WNW 01:40:28 10° NNE
Cosmos 2112 Rocket 4.0 01:30:10 10° NNW 01:35:24 84° ENE 01:40:35 10° SSE
SL-16 R/B 2.8 01:31:40 10° NW 01:36:55 39° WSW 01:41:09 15° S
SL-16 R/B 3.7 01:34:06 10° SE 01:39:58 45° ENE 01:45:50 10° N
Cosmos 1603 4.3 01:36:07 10° NNW 01:41:52 63° NE 01:47:33 10° SE
Cosmos 2237 Rocket 4.2 01:41:24 10° WNW 01:43:16 12° W 01:45:08 10° WSW
Cosmos 1869 3.1 01:40:07 10° NNW 01:43:48 66° W 01:46:41 16° S
Cosmos 1544 Rocket 3.6 01:41:30 10° NNW 01:45:58 75° W 01:49:57 12° S
Cosmos 292 Rocket 3.9 01:43:03 16° SW 01:46:51 69° WNW 01:51:41 10° NNE
SL-8 Rocket 4.0 01:43:18 14° SSW 01:48:38 83° W 01:54:52 10° N
USA 234 3.8 01:42:48 10° E 01:49:15 64° NNE 01:55:43 10° WNW
Cosmos 2082 3.7 01:45:35 15° SSW 01:50:17 90° NW 01:55:57 10° NNE
IDEFIX/ARIANE 42P 2.8 01:45:10 10° NNE 01:50:26 69° ESE 01:55:13 12° S
Cosmos 2228 3.0 01:47:10 10° NNW 01:51:32 86° WSW 01:55:49 10° S
Cosmos 1943 3.1 01:46:29 10° NNW 01:52:08 80° WSW 01:57:44 10° SSE
Cosmos 2227 Rocket 3.1 01:47:23 10° WSW 01:52:44 42° NW 01:58:07 10° NNE
CZ-2C R/B 3.8 01:50:05 10° NNE 01:55:26 49° E 02:00:27 10° S
H-2A R/B 4.4 01:54:25 10° NNW 01:56:41 14° NW 01:58:55 10° W
GEOS 3 Rocket 4.4 01:52:07 10° NE 01:57:06 49° NW 02:02:01 10° WSW
Cosmos 1437 Rocket 3.9 01:53:48 10° SSE 01:57:19 36° E 02:00:49 10° NNE
CZ-2C R/B 2.6 01:52:11 10° SSE 01:57:29 86° WSW 02:02:56 10° NNW
CZ-2D R/B 2.6 01:53:10 10° NNE 01:58:30 59° ESE 02:03:41 10° S
Cosmos 1975 Rocket 3.9 01:58:43 14° SW 02:02:08 40° WNW 02:06:18 10° N
Meteor 1-11 4.5 01:57:52 14° SSW 02:02:55 65° WNW 02:08:44 10° N
Cosmos 1727 Rocket 4.1 01:57:02 10° N 02:03:24 85° E 02:09:46 10° S
COBE Rocket 4.2 01:59:50 10° N 02:04:58 68° WNW 02:09:38 13° SSW
CENTAUR R/B 2.9 01:59:42 10° WSW 02:05:40 67° NW 02:13:10 10° NE
H-2A R/B 3.4 02:04:21 10° NNE 02:08:22 87° ESE 02:12:02 12° SSW
USA 238 DEB 4.4 02:06:37 10° S 02:12:20 40° ESE 02:18:31 10° NE
USA 238 4.4 02:06:40 10° S 02:12:23 39° ESE 02:18:34 10° NE
Cosmos 2297 Rocket 4.1 02:09:12 10° W 02:13:37 23° NW 02:18:03 10° NNE
NPP 3.7 02:09:33 10° NNE 02:14:59 82° WNW 02:20:16 11° SSW
Cosmos 2219 3.9 02:09:36 10° SW 02:15:01 47° NW 02:20:28 10° NNE
Cosmos 2341 Rocket 4.4 02:13:09 12° SSW 02:18:48 50° WNW 02:24:52 10° N
Cosmos 1606 Rocket 3.8 02:17:02 10° N 02:21:30 74° ENE 02:25:55 10° SSE
ASTEX 1 3.8 02:16:54 10° SSE 02:21:43 66° E 02:26:33 10° N
Aureole 1 Rocket 4.3 02:20:09 10° WSW 02:23:32 31° NW 02:27:43 10° NNE
Cosmos 921 Rocket 3.0 02:19:29 10° NNW 02:23:46 88° ENE 02:27:57 10° SSE
Cosmos 1867 4.5 02:18:52 10° S 02:23:57 41° ESE 02:29:05 10° NE
Cosmos 2227 4.4 02:18:50 10° SSW 02:24:28 71° ESE 02:30:14 10° NNE
ADEOS II 2.4 02:20:25 10° NNE 02:25:40 67° ESE 02:30:53 10° S
Cosmos 494 Rocket 4.0 02:21:54 10° NNW 02:27:10 80° WSW 02:32:24 10° SSE
Cosmos 1536 Rocket 3.7 02:27:11 10° SSW 02:31:36 67° WNW 02:36:02 10° N
Cosmos 1606 4.3 02:32:56 10° NW 02:35:23 18° W 02:37:50 10° SW
Cosmos 1726 Rocket 3.7 02:32:39 10° N 02:37:07 80° E 02:41:33 10° SSE
Resurs 1-4 Rocket 2.2 02:33:14 10° NNE 02:38:30 68° WNW 02:43:44 10° SSW
Cosmos 724 4.3 02:36:24 10° NW 02:42:15 90° ESE 02:48:05 10° SE
Cosmos 1937 Rocket 4.2 02:38:35 10° SW 02:43:39 45° WNW 02:48:41 10° NNE
Iridium 4 Rocket 4.2 02:41:38 10° N 02:45:52 48° E 02:50:24 10° SSE
Cosmos 2263 Rocket 3.1 02:41:22 10° WSW 02:46:36 40° NW 02:51:51 10° NNE
NOSS 3-2 (A) 4.0 02:45:32 10° WSW 02:50:55 53° NNW 02:57:28 10° NE
BlueWalker 3 2.0 02:47:37 10° WNW 02:51:23 78° N 02:55:08 10° E
Cosmos 1812 2.8 02:48:38 10° N 02:52:14 73° ENE 02:55:48 10° SSE
CZ-4C R/B 4.2 02:47:59 10° WNW 02:52:46 30° N 02:58:39 10° NE
Cosmos 1821 Rocket 4.2 02:46:48 10° SSW 02:52:47 57° WNW 02:58:52 10° N
Cosmos 1461 3.3 02:50:42 10° WSW 02:54:34 50° NW 02:58:21 10° NE
USA 267 3.9 02:48:25 10° ENE 02:54:39 45° SE 03:00:51 10° SSW
Cosmos 2058 4.0 02:51:37 10° SSE 02:55:27 43° E 02:59:20 10° NNE
NOSS 3-2 (C) 3.4 02:51:08 10° SW 02:56:33 80° NW 03:03:08 10° NE
BREEZE M DEB (TANK) 4.4 02:41:47 10° W 02:57:06 71° SSW 03:01:20 10° ESE
